Вернуться в каталог

STARLINK-3568

АктивенСвязьVLEO
NORAD 51856·PAYLOAD·🇺🇸 United States

Запущен Mar 3, 2022 с Cape Canaveral Space Force Station

Loading…

Ближайшие Пролёты (ближайшие 24 часа)

TLE

СвежийSource: CelesTrak SupGP

Эпоха: Sep 14, 2026, 20:20 UTC

1 51856C 22022E   26257.84770833  .00042340  00000+0  13616-2 0  2573
2 51856  53.1580 237.2472 0001249  93.2559  99.8842 15.31679395    15

Отслеживайте STARLINK-3568 в реальном времени с AllMySat

Download on the App Store